This is the latest recevied weather packets stored in our database for station/object KD4WLE. If no packets are shown the sender has not sent any weather packets the latest 1 day(s).
| Time | Temp. | Humidity | Pressure | Rain* | Wind** | Luminosity | Snow |
|---|---|---|---|---|---|---|---|
| 1778005096 | 27.22° C | 52% | 1017.4 hPa | 0 mm | 1.34 m/s, 275° | 855 W/m² | - |
| 1778004794 | 27.78° C | 52% | 1017.2 hPa | 0 mm | 1.34 m/s, 264° | 745 W/m² | - |
| 1778004490 | 27.78° C | 52% | 1017.3 hPa | 0 mm | 1.79 m/s, 300° | 736 W/m² | - |
| 1778004187 | 27.78° C | 53% | 1017.4 hPa | 0 mm | 0.89 m/s, 265° | 789 W/m² | - |
| 1778003883 | 27.78° C | 52% | 1017.6 hPa | 0 mm | 2.68 m/s, 348° | 813 W/m² | - |
| 1778003580 | 27.22° C | 55% | 1017.4 hPa | 0 mm | 1.79 m/s, 324° | 789 W/m² | - |
| 1778003276 | 27.78° C | 53% | 1017.4 hPa | 0 mm | 2.24 m/s, 287° | 826 W/m² | - |
| 1778002973 | 27.78° C | 53% | 1017.5 hPa | 0 mm | 0.89 m/s, 325° | 830 W/m² | - |
| 1778002669 | 27.78° C | 55% | 1017.4 hPa | 0 mm | 0.89 m/s, 300° | 824 W/m² | - |
| 1778002366 | 27.78° C | 54% | 1017.3 hPa | 0 mm | 0.89 m/s, 218° | 820 W/m² | - |
| 1778002063 | 27.22° C | 56% | 1017.4 hPa | 0 mm | 1.79 m/s, 275° | 822 W/m² | - |
| 1778001760 | 27.78° C | 56% | 1017.6 hPa | 0 mm | 2.24 m/s, 259° | 810 W/m² | - |
| 1778001460 | 26.67° C | 54% | 1017.5 hPa | 0 mm | 1.79 m/s, 278° | 888 W/m² | - |
| 1778001157 | 26.67° C | 57% | 1017.7 hPa | 0 mm | 2.24 m/s, 292° | 275 W/m² | - |
| 1778000854 | 27.22° C | 53% | 1017.8 hPa | 0 mm | 1.79 m/s, 275° | 306 W/m² | - |
| 1778000551 | 27.22° C | 54% | 1017.9 hPa | 0 mm | 1.79 m/s, 298° | 386 W/m² | - |
| 1778000246 | 27.22° C | 55% | 1017.6 hPa | 0 mm | 0.89 m/s, 265° | 596 W/m² | - |
| 1777999942 | 27.78° C | 55% | 1017.4 hPa | 0 mm | 0.89 m/s, 251° | 959 W/m² | - |
| 1777999638 | 27.78° C | 56% | 1017.5 hPa | 0 mm | 1.79 m/s, 320° | 703 W/m² | - |
| 1777999335 | 27.78° C | 54% | 1017.8 hPa | 0 mm | 1.79 m/s, 258° | 793 W/m² | - |
| 1777999033 | 27.22° C | 56% | 1017.7 hPa | 0 mm | 1.79 m/s, 266° | 855 W/m² | - |
| 1777998732 | 27.78° C | 54% | 1017.6 hPa | 0 mm | 0.89 m/s, 288° | 737 W/m² | - |
| 1777998429 | 27.22° C | 56% | 1017.6 hPa | 0 mm | 1.79 m/s, 266° | 761 W/m² | - |
| 1777998126 | 26.67° C | 56% | 1017.6 hPa | 0 mm | 2.24 m/s, 275° | 788 W/m² | - |
| 1777997822 | 27.22° C | 56% | 1017.7 hPa | 0 mm | 2.24 m/s, 306° | 777 W/m² | - |
* Rain latest hour (hover to see other rain measurements)
** Current wind speed in m/s (hover to see current wind gust speed)